SP9INZ-13 Weather Reports


time (UTC)temp
C
wind
direction
speed
KPH
gust
KPH
rain 1hr
cm
rain 24hr
cm
rain mn
cm
humidity
%
barometer
mb
20260505041013 15 0.0 0.0 0.00 0.00 0.00 45 1016.3
20260505035415 16 0.0 0.0 0.00 0.00 0.00 43 1016.1
20260505033817 15 0.0 0.0 0.00 0.00 0.00 47 1016.5
20260505032220 15 0.0 0.0 0.00 0.00 0.00 46 1016.5
20260505030622 15 0.0 0.0 0.00 0.00 0.00 46 1016.6
20260505025023 15 0.0 0.0 0.00 0.00 0.00 46 1016.7
20260505023425 15 0.0 0.0 0.00 0.00 0.00 48 1017.0
20260505021827 15 0.0 0.0 0.00 0.00 0.00 48 1017.0
20260505020230 16 0.0 0.0 0.00 0.00 0.00 44 1016.9
20260505014631 17 0.0 0.0 0.00 0.00 0.00 38 1016.7
20260505013033 18 0.0 0.0 0.00 0.00 0.00 37 1016.6
20260505011435 18 0.0 0.0 0.00 0.00 0.00 36 1016.5
20260505005837 18 0.0 0.0 0.00 0.00 0.00 36 1016.6
20260505004240 18 0.0 0.0 0.00 0.00 0.00 36 1016.8
20260505002642 18 0.0 0.0 0.00 0.00 0.00 36 1016.9
20260505001043 18 0.0 0.0 0.00 0.00 0.00 37 1017.1
20260504235445 17 0.0 0.0 0.00 0.00 0.00 38 1017.5
20260504233847 18 0.0 0.0 0.00 0.00 0.00 37 1017.2
20260504232249 19 0.0 0.0 0.00 0.00 0.00 37 1017.0
20260504230651 19 0.0 0.0 0.00 0.00 0.00 36 1017.2
20260504225053 18 0.0 0.0 0.00 0.00 0.00 36 1017.5
20260504223455 19 0.0 0.0 0.00 0.00 0.00 36 1017.3
20260504221857 19 0.0 0.0 0.00 0.00 0.00 36 1017.4
20260504220259 20 0.0 0.0 0.00 0.00 0.00 36 1017.3
20260504214701 20 0.0 0.0 0.00 0.00 0.00 36 1017.2
20260504213103 20 0.0 0.0 0.00 0.00 0.00 35 1017.2
20260504211505 20 0.0 0.0 0.00 0.00 0.00 34 1017.1
20260504205907 21 0.0 0.0 0.00 0.00 0.00 34 1016.9
20260504204309 21 0.0 0.0 0.00 0.00 0.00 35 1016.7
20260504202711 21 0.0 0.0 0.00 0.00 0.00 36 1016.5
20260504201113 21 0.0 0.0 0.00 0.00 0.00 38 1015.9
20260504195516 22 0.0 0.0 0.00 0.00 0.00 38 1015.7
20260504193917 22 0.0 0.0 0.00 0.00 0.00 38 1015.6
20260504192318 22 0.0 0.0 0.00 0.00 0.00 38 1015.5
20260504190721 22 0.0 0.0 0.00 0.00 0.00 38 1015.1
20260504185123 23 0.0 0.0 0.00 0.00 0.00 38 1014.9
20260504183525 23 0.0 0.0 0.00 0.00 0.00 37 1014.8
20260504181927 23 0.0 0.0 0.00 0.00 0.00 36 1014.6
20260504180328 23 0.0 0.0 0.00 0.00 0.00 36 1014.4
20260504174731 23 0.0 0.0 0.00 0.00 0.00 37 1014.3
20260504173132 24 0.0 0.0 0.00 0.00 0.00 35 1014.1
20260504171535 26 0.0 0.0 0.00 0.00 0.00 32 1013.6
20260504150751 28 0.0 0.0 0.00 0.00 0.00 27 1013.3
20260504140359 26 0.0 0.0 0.00 0.00 0.00 29 1015.0
20260504100429 23 0.0 0.0 0.00 0.00 0.00 31 1018.2
20260504081243 21 0.0 0.0 0.00 0.00 0.00 35 1019.1
20260504050107 15 0.0 0.0 0.00 0.00 0.00 46 1021.2